Meteo Giornale » Osservazioni meteo Stati Uniti (USA) » Green Bay Austin Straubel
ore: 06:53 - Osservazioni Meteo Green Bay Austin Straubel
Lat. 44° 28' N Lon. 88° 8' W Alt. 211 metri s.l.m.
22 °C
Nebbia
Temp. 24 Ore
19 °C
31 °C
Nord
0 Km/h
Dew point 22 °C
Umidità 100 %
Visibilità 0 Km
Il sole sorge alle ore 06:15
Il sole tramonta alle ore 19:29
| Data e Ora | Cielo e Fenomeni | T °C | DP °C | Um. % | Pres. hPa | Vis. km | Vento km/h | |
|---|---|---|---|---|---|---|---|---|
| Oggi h: 06:53 | Nebbia | 22 | 22 | 100 | 1013 | 0 | N 0 | |
| Oggi h: 06:45 | Nebbia | 21 | 21 | 100 | 1013 | 0 | N 0 | |
| Oggi h: 06:18 | Nebbia | 21 | 21 | 100 | 1012 | 2 | N 0 | |
| Oggi h: 06:06 | Nebbia | 20 | 20 | 100 | 1012 | 2 | N 0 | |
| Oggi h: 05:53 | Nebbia | 20 | 20 | 100 | 1012 | 2 | N 0 | |
| Oggi h: 05:26 | Nebbia | 19 | 19 | 100 | 1012 | 2 | N 0 | |
| Oggi h: 05:11 | Nebbia | 19 | 19 | 100 | 1012 | 2 | N 5.5 | |
| Oggi h: 05:01 | Nebbia | 20 | 20 | 100 | 1012 | 2 | N 0 | |
| Oggi h: 04:53 | Nebbia | 21 | 21 | 100 | 1012 | 2 | S 7.4 | |
| Oggi h: 04:31 | Nebbia | 20 | 20 | 100 | 1012 | 2 | N 0 | |
| Oggi h: 04:23 | Nebbia | 20 | 20 | 100 | 1012 | 2 | N 0 | |
| Oggi h: 04:13 | Nebbia | 21 | 21 | 100 | 1012 | 2 | N 0 | |
| Oggi h: 04:00 | Nebbia | 20 | 20 | 100 | 1012 | 2 | N 0 | |
| Oggi h: 03:53 | Nebbia | 21 | 21 | 100 | 1012 | 2 | N 0 | |
| Oggi h: 03:41 | Nebbia | 21 | 21 | 100 | 1012 | 2 | N 0 | |
| Oggi h: 03:31 | Foschia | 21 | 21 | 100 | 1012 | 5 | N 0 | |
| Oggi h: 03:24 | Foschia | 21 | 21 | 100 | 1012 | 2 | N 0 | |
| Oggi h: 02:53 | Nebbia | 21 | 21 | 100 | 1012 | 2 | N 0 | |
| Oggi h: 02:20 | Nebbia | 21 | 21 | 100 | 1012 | 2 | N 0 | |
| Oggi h: 02:09 | Foschia | 22 | 22 | 100 | 1012 | 5 | N 0 | |
| Oggi h: 01:53 | Foschia | 22 | 22 | 100 | 1012 | 5 | N 0 | |
| Oggi h: 01:47 | Foschia | 22 | 22 | 100 | 1011 | 3 | N 0 | |
| Oggi h: 01:41 | Nebbia | 22 | 22 | 100 | 1011 | 2 | N 0 | |
| Oggi h: 01:32 | Foschia | 21 | 21 | 100 | 1012 | 5 | N 0 | |
| Oggi h: 00:56 | Foschia | 22 | 21 | 94 | 1012 | 5 | N 0 | |
| Oggi h: 00:53 | Foschia | 21 | 21 | 100 | 1012 | 5 | N 0 | |
| Oggi h: 00:46 | Foschia | 21 | 21 | 100 | 1012 | 2 | N 0 | |
| Oggi h: 00:38 | Foschia | 21 | 21 | 100 | 1012 | 5 | N 0 | |
| Oggi h: 00:29 | Foschia | 22 | 22 | 100 | 1012 | 2 | N 0 | |
| Oggi h: 00:23 | Foschia | 22 | 22 | 100 | 1012 | 5 | N 0 | |
| Oggi h: 00:00 | Foschia | 22 | 21 | 94 | 1011 | 2 | N 0 | |
| Ieri h: 23:53 | Foschia | 22 | 21 | 94 | 1012 | 8 | N 0 | |
| Ieri h: 22:53 | Foschia Nebbia | 22 | 22 | 100 | 1012 | 10 | N 0 | |
| Ieri h: 21:53 | Poco Nuvoloso | 24 | 23 | 94 | 1012 | 10 | N 0 | |
| Ieri h: 20:53 | Sereno | 26 | 23 | 83 | 1012 | 10 | N 0 | |
| Ieri h: 19:53 | Poco Nuvoloso | 27 | 23 | 78 | 1011 | 10 | N 0 | |
| Ieri h: 18:53 | Sereno | 28 | 24 | 78 | 1010 | 10 | S 7.4 | |
| Ieri h: 17:53 | Sereno | 28 | 24 | 78 | 1010 | 10 | N 0 | |
| Ieri h: 16:53 | Sereno | 30 | 24 | 70 | 1010 | 10 | N 0 | |
| Ieri h: 15:53 | Sereno | 31 | 23 | 62 | 1009 | 10 | O/SO 7.4 | |
| Ieri h: 14:53 | Sereno | 31 | 23 | 62 | 1010 | 10 | O/SO 14.8 | |
| Ieri h: 13:53 | Sereno | 29 | 23 | 70 | 1010 | 10 | O 11.1 | |
| Ieri h: 12:53 | Sereno | 29 | 22 | 66 | 1010 | 10 | O/SO 11.1 | |
| Ieri h: 11:53 | Sereno | 28 | 22 | 69 | 1010 | 10 | S/SO 9.3 | |
| Ieri h: 10:53 | Sereno | 27 | 21 | 69 | 1011 | 10 | SO 13 | |
| Ieri h: 09:53 | Sereno | 26 | 21 | 73 | 1010 | 10 | SO 13 | |
| Ieri h: 08:53 | Sereno | 24 | 21 | 83 | 1011 | 10 | S/SE 11.1 | |
| Ieri h: 07:53 | Sereno | 22 | 21 | 94 | 1011 | 10 | N 5.5 | |



